Temp_Advection
nan nan nan nan nan nan nan nan nan nan nan nan nan nan nan nan nan nan nan nan nan nan nan nan nan nan nan nan nan nan nan nan nan nan nan nan nan nan nan nan nan nan nan nan
nan -1 -1 -0 0 1 0 0 -1 0 0 0 -0 -0 -0 -0 -0 -0 0 -0 -1 -0 0 0 1 1 0 0 -0 1 0 -0 -0 -0 -0 0 0 0 0 0 0 0 0 nan
nan -1 -0 0 0 0 1 0 -0 0 0 0 -0 -1 -1 -1 -0 -0 -0 -0 -0 0 -1 -0 -0 -0 0 -1 -0 -0 0 0 0 0 0 0 -0 -0 -0 0 0 0 0 nan
nan -0 0 1 0 0 0 -0 -0 0 0 -0 -0 -0 -0 -0 0 -0 0 -0 0 -1 -0 -0 -1 -1 -1 -3 -1 -0 0 0 0 0 0 -0 -0 -0 -1 -0 0 0 0 nan
nan 0 0 0 0 0 -0 0 0 0 0 0 -0 -0 -1 0 0 -0 -0 -0 -0 -0 1 0 -1 -1 -1 -0 0 0 0 0 0 0 0 -0 -0 -0 0 0 0 0 0 nan
nan 0 0 0 0 0 0 0 0 0 0 -0 -0 -0 -1 -0 -0 -1 -0 -0 -0 0 -0 -1 -0 2 1 2 0 0 0 1 1 0 0 -0 -0 -0 -0 -0 -0 -0 0 nan
nan 0 0 0 0 0 0 0 0 0 -0 -1 0 -0 -1 -0 -1 -0 0 -0 -0 -0 0 0 1 1 -0 0 -0 1 0 -0 0 0 -0 -0 -0 0 -0 -0 -0 -0 -0 nan
nan 0 0 0 -0 -0 1 0 -0 0 0 -0 0 -1 -0 -0 0 1 -0 0 0 0 -0 0 0 0 -0 0 0 0 -0 -0 0 0 0 0 0 0 0 0 0 0 0 nan
nan -0 0 -0 -0 -0 -0 -1 0 0 0 -0 -0 -0 -0 -0 0 -0 0 0 0 0 -0 0 1 1 2 -2 -1 0 -0 -0 -0 0 0 0 0 0 0 0 0 1 1 nan
nan -0 -0 0 0 0 -0 -0 0 -0 -0 -0 0 -0 -1 0 0 0 -0 -0 -0 -0 0 0 1 1 -1 -1 1 0 -0 0 1 1 0 0 0 0 0 0 1 1 1 nan
nan -1 0 0 0 0 0 0 -0 0 0 -0 -0 -0 0 -0 -0 -0 -0 -1 -0 1 0 0 0 0 1 3 4 3 0 0 1 0 0 1 0 0 1 1 1 1 1 nan
nan -1 -1 0 0 0 -0 -0 -0 0 0 -0 0 -0 0 -0 -0 0 -0 -1 -1 -1 -0 1 1 1 2 3 4 2 1 -0 0 0 1 1 1 1 1 1 1 1 1 nan
nan -0 -1 0 -0 -0 -0 0 -0 0 -0 -0 -0 0 -0 -0 0 0 -0 -0 -0 -0 -0 1 2 1 1 1 2 0 1 1 1 0 1 1 1 1 1 1 1 1 1 nan
nan -0 -0 -0 -0 -0 -1 -1 -0 0 -0 -0 -0 -0 -0 0 0 -0 0 0 -0 -0 0 1 1 1 1 2 2 2 2 2 -0 1 1 1 1 1 1 1 1 1 1 nan
nan -0 -1 -0 -0 -1 -0 -0 -1 -0 -0 -0 -0 -0 -0 0 0 -0 0 0 -0 0 1 1 1 1 1 1 1 2 3 0 1 2 1 1 1 1 1 1 1 1 0 nan
nan -0 -1 -1 -1 0 -0 -1 -0 -0 -0 -0 -0 -2 -0 0 0 -0 -0 0 -1 0 1 1 1 1 0 0 -0 1 0 2 2 2 2 1 1 1 1 1 1 1 0 nan
nan -0 -0 -0 -1 -0 -0 0 -0 -0 -0 -0 -1 -1 0 0 -0 -0 -0 1 -0 -0 1 1 1 1 1 1 1 0 -1 1 3 3 1 1 1 1 1 1 1 0 0 nan
nan -0 0 -0 -0 -0 -1 -0 -0 -0 -0 -0 -0 -0 -0 -0 -1 -0 0 1 -1 -0 0 1 0 1 1 1 1 -0 1 1 2 1 2 1 1 1 1 1 0 0 0 nan
nan 0 0 -0 -0 -0 -1 0 -0 -0 -0 -0 -0 -0 0 0 0 0 0 -0 -0 1 0 0 1 1 1 1 1 1 2 1 1 1 2 1 1 1 0 0 0 0 0 nan
nan 0 0 -0 -0 -0 -0 -0 -0 -0 -0 -0 -0 -1 -0 0 -0 -0 0 1 1 1 0 0 1 1 2 2 2 2 2 1 1 2 1 1 1 1 0 0 1 1 1 nan
nan 0 0 -0 -0 -1 -1 -1 -1 -0 -0 -0 -1 -1 -0 -0 -0 0 1 2 2 1 1 1 1 1 2 2 2 2 2 2 2 1 1 1 1 1 1 0 1 1 0 nan
nan -0 -0 -0 -0 -0 -1 -1 -0 0 -2 -1 -2 -1 -1 -0 1 3 2 2 2 1 2 2 1 1 2 2 -1 0 2 2 2 2 1 1 1 1 1 1 0 0 0 nan
nan -0 -0 -0 -0 -0 -0 -0 -1 -0 -1 -1 -1 -1 -0 1 1 2 2 2 2 1 2 2 1 1 1 3 3 -2 1 2 2 2 1 1 0 0 1 1 0 0 0 nan
nan -0 -0 -0 -0 -1 -0 -0 -1 -0 -0 -0 -0 -0 0 -0 0 0 1 1 1 1 1 1 0 -1 0 2 6 5 1 0 1 1 1 1 0 0 0 0 0 0 0 nan
nan -0 -0 -0 -0 -1 -0 -1 -0 -0 -0 -0 0 0 0 -0 -0 0 0 1 1 1 1 2 1 -0 -0 0 2 4 4 2 0 0 0 0 0 0 0 0 0 0 0 nan
nan nan nan nan nan nan nan nan nan nan nan nan nan nan nan nan nan nan nan nan nan nan nan nan nan nan nan nan nan nan nan nan nan nan nan nan nan nan nan nan nan nan nan nan
Wind_Speed
23 12 26 24 23 15 13 10 15 5 3 6 15 20 22 20 14 18 21 26 32 31 28 27 30 35 39 45 42 39 39 39 38 36 34 31 28 25 23 22 21 22 21 19
11 28 24 15 17 20 18 19 18 12 6 8 12 18 18 14 19 28 27 29 34 36 28 26 32 29 36 46 43 41 40 41 41 38 36 33 30 26 24 24 24 22 21 20
26 13 22 16 16 21 21 22 18 18 4 7 7 15 20 18 25 27 30 34 37 40 37 28 34 36 34 43 45 43 41 41 41 41 37 34 30 27 28 28 27 25 22 20
19 26 10 23 21 17 15 12 11 7 8 6 7 8 11 10 20 18 29 30 35 38 45 42 36 36 43 39 44 44 44 43 44 42 39 38 36 34 33 31 28 26 24 21
15 15 25 16 25 15 9 7 9 13 15 11 15 8 11 15 14 18 22 35 37 41 43 47 49 43 41 37 47 48 48 46 45 43 42 40 36 32 30 31 30 28 25 22
25 4 11 18 5 13 3 7 4 10 10 12 15 11 14 16 13 18 15 31 37 39 44 48 48 50 44 45 51 51 52 52 48 46 44 41 39 35 34 34 33 30 27 24
6 20 4 4 10 5 11 7 4 6 7 10 8 12 23 6 12 18 15 27 38 41 43 48 45 51 50 51 52 53 53 55 53 49 46 43 38 35 32 35 34 33 30 27
10 11 12 8 19 10 14 13 6 7 6 8 7 11 9 14 21 28 19 29 32 39 45 49 55 56 56 48 49 56 55 54 55 52 49 45 41 38 32 32 33 32 29 26
8 10 5 12 9 18 7 14 17 3 2 4 4 5 8 12 11 10 21 20 28 36 42 47 53 61 60 57 49 51 56 54 55 55 52 49 45 41 34 32 32 31 28 25
7 5 7 5 11 12 15 7 6 10 9 12 3 4 9 8 8 7 6 14 24 35 43 47 50 54 58 69 54 51 56 57 53 56 55 50 46 41 33 30 31 32 29 26
11 7 1 7 6 13 8 5 7 6 8 5 1 4 5 4 2 2 4 12 22 30 37 44 49 50 58 61 64 61 59 56 55 55 53 51 46 41 35 31 32 32 29 26
4 4 5 10 3 13 15 12 9 5 7 8 1 6 2 2 3 2 4 12 16 23 35 44 47 47 51 57 59 61 59 60 54 51 53 52 47 42 37 31 33 31 29 26
10 6 7 2 1 5 1 9 16 12 1 13 10 8 1 3 5 7 5 13 16 12 24 33 40 46 50 55 58 60 61 58 58 50 54 52 48 43 37 34 33 31 28 25
8 4 4 3 8 8 10 12 13 18 8 11 12 8 9 7 9 8 9 14 14 12 18 32 35 40 44 50 51 57 56 61 56 54 55 53 49 43 38 35 33 31 28 24
4 5 10 12 16 16 18 11 12 13 18 11 15 17 11 9 5 5 9 10 10 7 21 31 33 33 36 37 41 44 55 60 58 57 55 53 48 44 39 37 34 31 27 22
5 4 13 5 10 6 14 15 14 11 16 17 15 20 3 2 4 1 5 6 10 13 18 26 33 33 39 42 44 47 53 56 54 52 55 52 47 42 41 38 35 31 25 21
3 3 5 4 11 13 5 4 3 5 5 12 15 18 4 9 8 7 11 12 12 15 21 27 31 38 42 46 48 49 48 50 51 51 52 49 45 43 40 37 33 28 23 20
9 8 4 5 11 2 6 12 8 11 10 15 13 8 8 13 17 22 15 13 17 15 20 25 29 33 38 41 43 43 45 49 51 54 51 48 46 42 40 36 31 26 21 17
17 10 3 2 3 7 7 4 4 3 5 4 10 13 10 3 1 6 10 10 11 18 22 24 26 33 36 39 41 43 50 54 54 52 52 48 45 43 38 33 28 24 19 15
10 11 5 1 3 3 2 6 9 2 1 6 4 6 8 8 6 8 15 17 21 23 24 25 25 31 34 37 40 45 50 52 51 52 49 47 43 39 35 30 25 21 16 12
3 2 7 5 3 7 9 15 13 4 4 17 12 12 3 7 9 5 21 22 23 22 25 24 25 29 33 36 40 48 53 55 53 50 47 42 38 34 30 25 20 16 12 8
2 5 3 3 3 7 17 11 5 6 19 18 26 16 18 9 8 20 26 27 25 26 26 25 28 31 36 41 48 53 53 53 50 46 43 39 34 29 25 20 17 13 9 6
1 2 2 5 5 7 14 10 18 20 19 19 24 25 5 15 20 23 27 28 29 29 30 29 31 32 34 39 48 53 51 48 45 41 38 34 29 24 20 15 12 10 7 5
4 5 2 6 5 13 21 21 25 20 16 14 11 3 12 21 24 28 29 31 32 31 34 36 38 38 36 38 45 51 47 42 41 39 34 29 25 21 16 13 10 7 5 4
2 6 3 6 7 17 3 29 24 16 8 7 5 9 19 27 28 32 32 32 33 35 36 36 39 42 43 44 46 45 43 39 37 32 28 24 20 16 15 12 8 6 5 3
4 3 2 4 12 13 18 20 14 9 10 12 15 20 23 29 31 35 34 35 37 38 39 42 43 47 47 44 41 35 30 26 26 26 22 20 17 15 12 10 10 8 5 3
Wind_Direction
196 216 222 214 216 231 226 242 244 210 193 231 237 245 253 241 224 221 214 211 216 221 215 221 213 220 215 205 197 194 191 189 188 189 187 184 183 183 182 181 177 176 173 168
205 224 222 219 216 219 235 249 256 263 226 250 260 260 261 246 224 222 214 211 216 220 215 216 215 205 227 203 198 195 194 193 193 194 194 191 186 185 184 180 178 180 178 173
205 229 218 219 214 213 224 239 244 252 276 263 293 271 260 253 234 228 226 215 216 213 216 209 213 205 214 211 201 199 198 197 196 196 196 193 189 186 184 182 182 181 181 179
223 228 213 209 225 203 241 218 233 232 244 250 181 281 243 243 229 216 221 214 216 211 213 212 204 208 204 205 207 204 203 200 200 199 198 198 194 190 191 186 184 183 182 184
216 194 214 217 220 205 239 165 219 244 256 265 240 264 273 233 223 218 217 213 214 212 211 210 205 210 208 206 209 208 206 202 204 201 202 200 200 198 192 188 187 186 184 187
221 200 192 208 177 204 166 194 205 244 240 244 233 225 253 240 222 226 223 216 212 209 208 211 214 206 209 211 207 208 208 204 204 203 202 204 204 199 194 191 191 189 188 187
196 225 149 124 203 190 209 182 207 215 220 248 208 209 242 246 240 231 224 214 211 209 202 208 205 207 209 206 209 209 209 207 205 204 204 205 208 206 204 199 196 193 193 192
224 249 188 168 208 191 204 210 221 215 207 253 150 235 250 232 237 240 252 224 210 206 202 200 205 206 208 209 209 209 208 209 206 206 205 206 207 207 208 206 203 201 199 197
205 225 158 187 177 187 178 207 211 329 149 270 213 288 279 245 237 225 227 224 207 202 200 202 202 203 202 205 207 211 210 210 208 208 207 206 205 207 207 205 204 202 198 197
292 235 202 176 186 216 206 154 174 212 220 238 242 256 248 298 258 253 246 219 207 203 200 201 200 199 203 206 215 209 212 211 209 209 209 205 203 206 208 206 203 200 198 199
307 282 125 131 182 182 198 184 210 178 216 227 345 254 209 246 308 5 284 255 237 224 208 202 202 197 200 206 206 208 207 206 207 210 209 205 201 203 205 204 200 198 198 199
297 308 287 192 121 191 193 189 180 196 220 222 53 273 127 3 18 240 284 332 311 257 219 204 198 192 191 197 196 199 203 202 204 207 206 203 202 200 200 198 198 196 196 198
354 355 329 72 293 33 278 217 207 220 163 202 203 241 31 223 6 339 351 8 351 309 221 195 186 184 186 190 193 197 200 199 201 202 204 202 199 198 195 194 193 194 197 200
30 353 333 280 293 281 283 311 227 212 231 239 245 286 291 310 1 342 359 19 18 348 198 177 177 181 183 185 185 192 197 198 198 201 201 198 196 195 191 189 191 194 196 199
17 263 296 296 279 264 268 272 297 232 214 208 245 236 259 269 217 234 20 33 53 95 164 167 167 174 178 178 180 183 190 194 196 194 195 194 192 190 189 186 188 190 192 195
325 287 308 272 260 289 281 267 252 235 235 242 264 273 223 243 188 323 291 307 112 127 146 158 160 165 170 173 174 178 187 186 190 193 191 188 186 184 182 183 184 186 189 196
254 263 318 278 318 311 324 170 178 232 199 208 232 243 200 241 249 238 242 257 160 167 167 164 165 171 174 179 186 184 188 184 184 188 184 181 180 179 178 179 181 183 189 198
238 221 252 280 294 351 245 318 285 250 232 210 232 249 229 236 240 264 255 236 181 185 183 174 176 175 177 177 179 186 190 184 183 179 177 176 175 175 176 176 178 182 190 199
210 208 239 238 294 298 296 36 357 334 338 288 255 250 245 191 234 257 236 215 190 209 191 173 180 184 182 183 184 185 180 179 176 176 172 170 173 173 173 175 177 182 191 200
205 197 189 266 225 248 263 340 347 278 307 330 329 334 256 153 219 246 194 201 188 189 184 176 178 180 179 178 178 178 174 168 168 167 164 167 168 171 171 174 176 181 188 199
108 171 213 264 315 290 320 321 302 296 354 315 320 313 322 204 235 214 183 175 182 176 171 169 176 173 174 173 173 170 164 165 162 161 158 160 165 168 168 169 174 179 185 195
213 161 186 202 225 260 10 341 357 302 313 316 316 311 304 247 197 169 167 163 162 160 158 166 167 161 157 165 166 157 155 153 154 154 154 157 160 162 163 170 170 174 181 190
102 150 298 224 241 3 351 301 308 324 308 308 308 312 241 148 133 134 141 146 148 152 145 154 156 156 157 160 166 151 145 148 150 152 153 155 156 158 158 162 166 169 175 187
8 21 305 342 2 334 331 354 344 341 327 327 318 288 157 128 123 117 121 126 131 140 141 147 150 144 142 150 148 146 150 153 154 153 150 150 153 150 151 157 158 166 174 170
17 334 335 272 311 324 225 342 341 339 4 50 83 121 123 123 113 118 117 119 125 127 137 146 147 146 141 142 140 138 143 148 146 144 145 146 144 145 149 150 150 152 148 140
350 334 297 274 319 309 297 327 340 13 51 80 107 107 111 120 113 117 112 119 126 127 134 139 138 136 135 136 129 131 136 144 146 141 139 141 143 145 143 144 144 141 138 111
Height
1451 1455 1434 1440 1446 1448 1454 1454 1451 1453 1456 1459 1455 1451 1446 1450 1452 1451 1453 1454 1458 1461 1464 1469 1472 1475 1483 1491 1496 1500 1507 1513 1519 1525 1531 1536 1539 1544 1547 1552 1556 1559 1562 1564
1446 1431 1422 1437 1442 1445 1450 1451 1448 1447 1455 1457 1450 1444 1440 1442 1441 1440 1442 1445 1448 1454 1458 1461 1464 1467 1475 1484 1491 1497 1503 1508 1514 1521 1527 1532 1537 1542 1546 1550 1554 1558 1561 1563
1424 1414 1426 1430 1433 1439 1441 1445 1447 1449 1452 1452 1451 1440 1434 1427 1430 1431 1432 1435 1440 1443 1449 1453 1459 1462 1467 1478 1484 1492 1499 1505 1510 1517 1524 1530 1535 1540 1544 1547 1552 1556 1560 1563
1422 1413 1418 1423 1427 1432 1436 1440 1444 1446 1451 1446 1447 1429 1418 1415 1417 1419 1422 1428 1432 1433 1438 1443 1450 1456 1463 1469 1480 1487 1495 1501 1507 1513 1520 1526 1529 1533 1538 1545 1550 1554 1558 1562
1402 1406 1411 1419 1416 1427 1429 1432 1438 1442 1442 1446 1439 1441 1405 1408 1410 1411 1409 1413 1420 1426 1432 1435 1438 1447 1455 1460 1472 1480 1488 1496 1503 1509 1515 1522 1527 1533 1538 1543 1547 1552 1556 1560
1397 1403 1405 1409 1417 1421 1425 1431 1438 1440 1442 1433 1425 1434 1395 1398 1399 1396 1396 1402 1408 1415 1423 1429 1433 1442 1448 1454 1463 1472 1480 1488 1496 1503 1511 1517 1523 1529 1534 1539 1543 1548 1553 1558
1399 1398 1402 1405 1414 1419 1422 1434 1432 1441 1435 1419 1414 1422 1389 1391 1389 1386 1387 1391 1396 1402 1409 1419 1426 1432 1441 1447 1456 1464 1473 1482 1491 1499 1506 1512 1519 1526 1530 1534 1540 1544 1549 1554
1398 1396 1397 1400 1403 1406 1415 1421 1420 1425 1424 1409 1417 1406 1383 1380 1379 1381 1379 1381 1388 1393 1398 1404 1413 1423 1432 1442 1447 1456 1464 1472 1484 1493 1500 1507 1515 1522 1527 1532 1537 1542 1546 1552
1393 1389 1387 1390 1393 1399 1411 1413 1409 1423 1423 1413 1404 1397 1384 1375 1373 1370 1371 1374 1377 1383 1389 1396 1400 1406 1419 1432 1436 1447 1458 1467 1476 1486 1494 1501 1510 1517 1523 1529 1534 1540 1544 1549
1406 1384 1381 1382 1390 1392 1391 1401 1417 1414 1408 1406 1396 1399 1382 1371 1368 1369 1368 1368 1369 1374 1379 1385 1392 1400 1407 1416 1430 1441 1448 1458 1470 1479 1488 1496 1504 1514 1521 1525 1530 1536 1541 1546
1418 1391 1380 1379 1387 1384 1395 1397 1398 1402 1403 1395 1395 1382 1373 1367 1367 1366 1366 1365 1365 1368 1372 1376 1382 1392 1397 1408 1419 1429 1441 1451 1463 1473 1484 1493 1500 1508 1517 1522 1527 1532 1537 1543
1419 1407 1379 1372 1372 1373 1376 1383 1391 1394 1408 1396 1408 1389 1364 1369 1369 1368 1366 1363 1360 1358 1359 1366 1371 1380 1389 1401 1411 1420 1428 1442 1454 1467 1479 1488 1496 1503 1511 1517 1524 1529 1534 1540
1421 1416 1397 1373 1378 1381 1382 1380 1383 1385 1392 1383 1389 1376 1367 1368 1367 1365 1362 1359 1357 1353 1355 1361 1368 1375 1384 1394 1402 1413 1423 1431 1447 1458 1471 1482 1490 1499 1505 1513 1520 1527 1532 1537
1425 1427 1424 1427 1423 1416 1404 1391 1379 1381 1383 1381 1375 1373 1367 1365 1367 1364 1361 1357 1354 1351 1352 1357 1366 1374 1382 1390 1396 1405 1417 1428 1437 1450 1464 1475 1484 1492 1500 1508 1516 1523 1529 1534
1434 1431 1422 1420 1415 1406 1396 1391 1386 1375 1373 1379 1368 1368 1365 1364 1366 1362 1358 1356 1355 1356 1355 1358 1362 1371 1381 1388 1395 1405 1412 1418 1430 1443 1456 1470 1479 1488 1496 1505 1513 1520 1526 1531
1434 1430 1421 1415 1397 1394 1388 1375 1371 1373 1371 1374 1375 1365 1362 1360 1362 1359 1357 1355 1357 1361 1362 1363 1364 1372 1379 1385 1394 1402 1413 1412 1427 1441 1454 1467 1476 1486 1493 1502 1509 1517 1523 1529
1436 1431 1422 1408 1395 1388 1388 1367 1368 1365 1362 1364 1367 1354 1357 1358 1359 1358 1356 1356 1359 1364 1366 1366 1370 1374 1378 1384 1389 1400 1409 1414 1425 1440 1453 1464 1474 1483 1493 1500 1508 1514 1521 1526
1427 1427 1427 1419 1400 1409 1368 1363 1358 1359 1352 1352 1351 1351 1352 1353 1354 1354 1355 1356 1360 1362 1366 1366 1371 1377 1381 1385 1389 1398 1409 1417 1428 1438 1450 1459 1471 1481 1493 1500 1506 1512 1518 1523
1416 1420 1426 1417 1396 1384 1363 1359 1361 1360 1355 1351 1349 1348 1349 1352 1353 1352 1353 1355 1356 1359 1364 1367 1370 1377 1380 1385 1390 1397 1408 1416 1427 1436 1447 1457 1471 1481 1492 1499 1503 1509 1515 1520
1406 1413 1421 1415 1410 1383 1360 1363 1359 1361 1357 1356 1354 1351 1349 1352 1354 1343 1348 1350 1355 1355 1359 1362 1370 1377 1381 1387 1390 1398 1407 1415 1426 1437 1446 1460 1472 1483 1490 1497 1500 1506 1512 1516
1417 1419 1422 1417 1417 1390 1371 1367 1360 1366 1369 1360 1357 1352 1348 1346 1343 1344 1346 1351 1355 1356 1359 1364 1374 1378 1385 1388 1392 1399 1407 1418 1429 1441 1451 1464 1476 1483 1488 1493 1500 1505 1508 1512
1405 1417 1420 1417 1417 1404 1383 1367 1370 1380 1370 1365 1355 1352 1347 1344 1343 1343 1345 1349 1354 1361 1362 1369 1376 1384 1390 1392 1395 1402 1412 1423 1435 1446 1455 1467 1476 1482 1486 1493 1498 1502 1506 1509
1400 1407 1410 1402 1391 1384 1386 1385 1380 1375 1370 1363 1356 1350 1347 1345 1346 1347 1350 1354 1360 1366 1368 1375 1380 1387 1392 1396 1401 1406 1419 1428 1441 1452 1459 1467 1475 1482 1488 1493 1498 1502 1505 1507
1406 1406 1403 1401 1386 1385 1384 1383 1377 1373 1370 1363 1357 1352 1349 1350 1351 1354 1359 1362 1365 1370 1375 1381 1387 1392 1398 1406 1411 1413 1423 1435 1446 1455 1463 1472 1478 1482 1487 1494 1498 1501 1505 1505
1414 1410 1410 1405 1394 1388 1381 1381 1379 1375 1370 1364 1360 1358 1355 1356 1359 1361 1364 1370 1374 1378 1382 1387 1391 1395 1404 1411 1421 1428 1438 1447 1453 1459 1467 1473 1477 1484 1490 1494 1498 1501 1502 1505
1416 1415 1414 1406 1400 1402 1392 1386 1382 1377 1372 1368 1366 1365 1364 1364 1366 1368 1373 1378 1381 1386 1389 1393 1399 1404 1415 1425 1433 1442 1451 1457 1461 1465 1471 1475 1479 1485 1489 1493 1497 1500 1503 1504